Location: Le Hiès Ruisseau
(43.3000°N, 0.4500°W)
Time: 07:14:21
(UTC+00:00)

SL-16 R/B - Pass Details

Date: 28 January 2023
Orbit: 842 x 846 km, 71.0° (Epoch: 26 March)

Event Time Altitude Azimuth Distance (km) Brightness Sun altitude
Rises 19:55:16 0° 222° (SW) 3,386 5.8 -30.5°
Reaches altitude 10° 19:57:48 10° 228° (SW) 2,456 5.1 -30.9°
Maximum altitude 20:03:12 45° 301° (WNW) 1,131 3.1 -31.9°
Enters shadow 20:04:15 41° 331° (NNW) 1,211 3.1 -32.1°
